Regional Weather Roundup
Issued by NWS Jackson, KY

Home | Current Version | Previous Version | Graphics & Text | Print | Product List | Glossary On
Versions: 1 2 3 4 5 6 7 8 9 10 11 12 13 14 15 16 17 18 19 20 21 22 23 24 25 26 27 28 29 30 31 32 33 34 35 36 37 38 39 40 41 42 43 44 45 46 47 48 49 50
000
ASUS43 KJKL 272310
RWRJKL

EAST KENTUCKY HOURLY WEATHER ROUNDUP
NATIONAL WEATHER SERVICE JACKSON KY
700 PM EDT MON MAR 27 2017

NOTE: "FAIR" INDICATES FEW OR NO CLOUDS BELOW 12,000 FEET WITH
NO SIGNIFICANT WEATHER AND/OR OBSTRUCTIONS TO VISIBILITY.

* THESE REPORTS ARE NOT UNDER NWS QUALITY CONTROL AND MAY NOT
  REPORT WEATHER SUCH AS PRECIPITATION AND FOG.

KYZ079-080-083-085-087-088-110-112-115-119-120-280000
...EASTERN KENTUCKY...

CITY           SKY/WX    TMP DP  RH WIND       PRES   REMARKS
JACKSON        CLEAR     65  57  75 CALM      29.89S
LONDON         LGT RAIN  69  55  60 CALM      29.87S
SOMERSET*      CLOUDY    61  55  82 CALM      29.88R
MONTICELLO*    CLOUDY    70  56  61 NW9       29.88R
WILLIAMSBURG*  CLOUDY    72  52  49 S12       29.87R
MIDDLESBORO*   PTCLDY    73  51  46 S6G23     29.89R
HARLAN APT*    PTCLDY    72  46  40 SE5       29.91R
PIKE CO APT*     N/A     60  59  99 SE3       29.91R
BIG SANDY APT* MOCLDY    63  59  86 CALM      29.90S
MOREHEAD APT*  MOCLDY    66  57  72 SW3       29.90R
$$

KYZ035-036-041-042-044-050-067-078-099-280000
...CENTRAL KENTUCKY...

CITY           SKY/WX    TMP DP  RH WIND       PRES   REMARKS
MT STERLING*   LGT RAIN  61  57  88 SE7       29.87F
FLEMING/MASON* LGT RAIN  65  58  79 S5        29.88S
DANVILLE*      CLOUDY    59  57  94 CALM      29.87R
LEXINGTON      CLOUDY    66  56  70 SE6       29.84F
FRANKFORT      TSTM      58  53  84 NE6       29.84R
LOUISVILLE     TSTM      61  55  81 SW13      29.87R
LEBANON*       RAIN      57  55  94 SW18G33   29.93R
GLASGOW*       TSTM     N/A N/A N/A S3        29.90F
BOWLING GREEN  LGT RAIN  59  56  89 SE8       29.88F
$$

KYZ091>093-OHZ055-061-077-WVZ005-015-034-035-042-280000
...SOUTHERN OHIO/WEST VIRGINIA...

CITY           SKY/WX    TMP DP  RH WIND       PRES   REMARKS
COVINGTON      CLOUDY    67  56  67 SE9       29.83F
COLUMBUS       CLOUDY    64  52  64 CALM      29.88F
DAYTON         CLOUDY    63  50  62 SE9       29.87S
WILMINGTON     CLOUDY    64  55  72 S3        29.86F
HUNTINGTON     MOCLDY    69  57  65 S3        29.87F
CHARLESTON     MOCLDY    67  53  61 SE6       29.88F
PINEVILLE*     PTCLDY    67  48  50 MISG      29.98F
BECKLEY        CLOUDY    59  53  80 E5        29.97F
LOGAN CO APT*  CLOUDY    63  59  88 CALM      29.92S
$$

VAZ002-007-008-TNZ017-027-036-066-071-280000
...SOUTHWEST VIRGINIA/EAST TENNESSEE...

CITY           SKY/WX    TMP DP  RH WIND       PRES   REMARKS
WISE*          PTCLDY    68  48  49 S8        29.97R
JONESVILLE*      N/A     73  54  49 S7        29.93R
ABINGDON*      PTCLDY    72  48  42 SW7       29.95S
BRISTOL        PTCLDY    71  50  47 S5        29.93R
MORRISTOWN*    CLEAR     73  57  56 S6        29.90S
SEVIERVILLE*   CLEAR     75  46  35 SW7       29.88F
KNOXVILLE      PTSUNNY   73  50  44 SW15      29.88S
LAFOLLETTE*    MOCLDY    70  54  56 CALM      29.91S
OAK RIDGE      MOSUNNY   75  53  46 S5        29.88F
CROSSVILLE     TSTM      58  54  86 VRB7      29.98R FOG
NASHVILLE      CLOUDY    64  58  80 NE10      29.86F
$$

...KEY TO REMARKS...
VSB - VISIBILITY IN MILES
WCI - WIND CHILL INDEX
HX  - HEAT INDEX

$$



USA.gov is the U.S. government's official web portal to all federal, state and local government web resources and services.